Location: *
(49.5667°N, 1.3667°W)
Time: 08:23:25
(UTC+00:00)

Cosmos 1959 Rocket - Pass Details

Date: 20 September 2019
Orbit: 947 x 997 km, 82.9° (Epoch: 19 October)

Event Time Altitude Azimuth Distance (km) Brightness Sun altitude
Rises 19:59:46 0° 350° (N) 3,633 8.0 -18.3°
Reaches altitude 10° 20:02:16 10° 351° (N) 2,686 7.2 -18.6°
Maximum altitude 20:08:25 86° 81° (E) 964 4.4 -19.5°
Enters shadow 20:13:17 17° 170° (S) 2,204 6.0 -20.2°
